DW2715 Weather Reports


Display with metric or nautical units.
time (UTC)temp
F
wind
direction
speed
MPH
gust
MPH
rain 1hr
in
rain 24hr
in
rain mn
in
humidity
%
barometer
mb
20260503004631 55 220 0.0 0.0 0.00 0.00 0.00 66 1019.9
20260503003619 55 220 0.0 0.0 0.00 0.00 0.00 66 1020.0
20260503002605 55 220 0.0 0.0 0.00 0.00 0.00 65 1020.1
20260503002102 55 220 0.0 0.0 0.00 0.00 0.00 65 1020.1
20260503001103 56 220 0.0 0.0 0.00 0.00 0.00 65 1020.1
20260503000604 56 219 0.0 0.0 0.00 0.00 0.00 65 1020.2
20260502235603 56 219 0.0 0.0 0.00 0.00 0.00 64 1020.3
20260502235103 56 219 0.0 0.0 0.00 0.00 0.00 63 1020.3
20260502234605 57 219 0.0 0.0 0.00 0.00 0.00 61 1020.3
20260502234103 57 219 0.0 0.0 0.00 0.00 0.00 61 1020.4
20260502233602 57 219 0.0 0.0 0.00 0.00 0.00 60 1020.4
20260502232602 57 219 0.0 0.0 0.00 0.00 0.00 59 1020.5
20260502232102 58 219 0.0 0.0 0.00 0.00 0.00 59 1020.5
20260502231603 58 219 0.0 0.0 0.00 0.00 0.00 59 1020.5
20260502230617 58 219 0.0 0.0 0.00 0.00 0.00 58 1020.5
20260502225103 58 219 0.0 0.0 0.00 0.00 0.00 57 1020.6
20260502223602 58 219 0.0 0.0 0.00 0.00 0.00 57 1020.7
20260502222604 59 219 0.0 2.0 0.00 0.00 0.00 56 1020.8
20260502222104 59 219 0.0 0.0 0.00 0.00 0.00 56 1020.7
20260502221603 59 219 0.0 0.0 0.00 0.00 0.00 56 1020.8
20260502221103 59 219 0.0 0.0 0.00 0.00 0.00 55 1020.8
20260502220602 60 220 0.0 0.0 0.00 0.00 0.00 55 1020.8
20260502220103 60 220 0.0 0.0 0.00 0.00 0.00 54 1020.8
20260502215602 60 220 0.0 0.0 0.00 0.00 0.00 54 1020.8
20260502215102 60 220 0.0 0.0 0.00 0.00 0.00 54 1020.8
20260502214602 60 220 0.0 0.0 0.00 0.00 0.00 54 1020.8
20260502214103 60 220 0.0 0.0 0.00 0.00 0.00 54 1020.8
20260502213602 61 220 0.0 0.0 0.00 0.00 0.00 53 1020.8
20260502213102 61 209 0.0 0.0 0.00 0.00 0.00 53 1020.8
20260502212603 61 209 0.0 0.0 0.00 0.00 0.00 53 1020.8
20260502212103 61 209 0.0 1.0 0.00 0.00 0.00 53 1020.8
20260502211602 61 209 0.0 1.0 0.00 0.00 0.00 52 1020.8
20260502211102 61 209 0.0 0.0 0.00 0.00 0.00 52 1020.8
20260502210602 62 209 0.0 0.0 0.00 0.00 0.00 51 1020.8
20260502210119 62 209 0.0 3.0 0.00 0.00 0.00 51 1020.9
20260502205603 62 208 0.0 3.0 0.00 0.00 0.00 51 1020.9
20260502205102 62 208 0.0 0.0 0.00 0.00 0.00 51 1020.9
20260502204604 62 207 0.0 0.0 0.00 0.00 0.00 51 1020.9
20260502204102 62 216 0.0 0.0 0.00 0.00 0.00 50 1020.9
20260502203602 63 216 0.0 0.0 0.00 0.00 0.00 50 1020.9
20260502203102 63 216 0.0 0.0 0.00 0.00 0.00 50 1020.9
20260502202601 63 216 0.0 0.0 0.00 0.00 0.00 49 1020.9
20260502202102 63 216 0.0 0.0 0.00 0.00 0.00 49 1020.9
20260502201600 64 216 0.0 0.0 0.00 0.00 0.00 48 1020.9
20260502201101 64 216 0.0 0.0 0.00 0.00 0.00 48 1021.0
20260502200101 64 216 0.0 0.0 0.00 0.00 0.00 48 1020.9
20260502195101 65 216 0.0 0.0 0.00 0.00 0.00 47 1021.0
20260502194600 65 216 0.0 0.0 0.00 0.00 0.00 47 1020.9
20260502193601 65 216 0.0 0.0 0.00 0.00 0.00 46 1020.9
20260502192600 66 216 0.0 0.0 0.00 0.00 0.00 45 1020.8
20260502192102 66 216 0.0 0.0 0.00 0.00 0.00 45 1020.8
20260502191601 66 216 0.0 0.0 0.00 0.00 0.00 45 1020.8
20260502191101 67 214 0.0 0.0 0.00 0.00 0.00 44 1020.8
20260502190601 67 214 0.0 0.0 0.00 0.00 0.00 44 1020.7
20260502190101 67 215 0.0 0.0 0.00 0.00 0.00 44 1020.8
20260502185601 68 213 0.0 0.0 0.00 0.00 0.00 43 1020.8
20260502185102 68 217 0.0 0.0 0.00 0.00 0.00 43 1020.7
20260502184601 68 220 0.0 0.0 0.00 0.00 0.00 42 1020.8
20260502184101 69 220 0.0 0.0 0.00 0.00 0.00 42 1020.7
20260502183602 69 219 0.0 0.0 0.00 0.00 0.00 41 1020.7
20260502183100 69 221 0.0 2.0 0.00 0.00 0.00 41 1020.6
20260502182602 70 221 1.0 3.0 0.00 0.00 0.00 40 1020.6
20260502182100 70 221 2.0 4.0 0.00 0.00 0.00 39 1020.6
20260502181601 70 221 2.0 5.0 0.00 0.00 0.00 39 1020.6
20260502181100 71 235 1.0 5.0 0.00 0.00 0.00 38 1020.6
20260502180600 71 225 0.0 0.0 0.00 0.00 0.00 38 1020.5
20260502164030 76 224 3.0 7.0 0.00 0.00 0.00 32 1020.7
20260502163529 76 175 4.0 9.0 0.00 0.00 0.00 32 1020.7
20260502162031 75 244 4.0 10.0 0.00 0.00 0.00 32 1020.8
20260502161530 76 225 4.0 12.0 0.00 0.00 0.00 32 1020.8
20260502161030 76 240 4.0 12.0 0.00 0.00 0.00 31 1020.9
20260502160530 77 249 4.0 9.0 0.00 0.00 0.00 30 1020.9
20260502151529 78 226 4.0 9.0 0.00 0.00 0.00 30 1021.3
20260502151030 78 227 4.0 9.0 0.00 0.00 0.00 31 1021.3
20260502150530 78 225 4.0 9.0 0.00 0.00 0.00 30 1021.4
20260502130501 75 204 5.0 11.0 0.00 0.00 0.00 31 1023.0
20260502123452 75 228 3.0 10.0 0.00 0.00 0.00 31 1023.3
20260502122452 75 238 3.0 11.0 0.00 0.00 0.00 31 1023.5
20260502121952 74 200 3.0 12.0 0.00 0.00 0.00 31 1023.5
20260502120952 75 217 3.0 11.0 0.00 0.00 0.00 31 1023.6
20260502120452 75 219 4.0 11.0 0.00 0.00 0.00 31 1023.7
20260502115450 75 242 5.0 12.0 0.00 0.00 0.00 31 1023.8
20260502114950 74 272 6.0 16.0 0.00 0.00 0.00 32 1023.8
20260502114450 74 163 5.0 16.0 0.00 0.00 0.00 32 1023.9
20260502113949 74 181 4.0 10.0 0.00 0.00 0.00 33 1023.9
20260502113450 73 251 3.0 8.0 0.00 0.00 0.00 32 1024.0
20260502112950 73 284 3.0 9.0 0.00 0.00 0.00 31 1024.1
20260502112450 74 307 2.0 9.0 0.00 0.00 0.00 31 1024.2
20260502111449 75 195 3.0 9.0 0.00 0.00 0.00 30 1024.3
20260502110949 75 270 5.0 9.0 0.00 0.00 0.00 33 1024.3
20260502105950 74 216 6.0 12.0 0.00 0.00 0.00 33 1024.5
20260502105446 73 205 5.0 11.0 0.00 0.00 0.00 33 1024.5
20260502104445 73 143 4.0 11.0 0.00 0.00 0.00 34 1024.6
20260502103945 73 201 3.0 8.0 0.00 0.00 0.00 34 1024.6
20260502103445 72 171 4.0 8.0 0.00 0.00 0.00 35 1024.8
20260502101945 71 281 3.0 9.0 0.00 0.00 0.00 34 1025.0
20260502101446 72 221 4.0 12.0 0.00 0.00 0.00 35 1025.1
20260502100442 71 248 2.0 8.0 0.00 0.00 0.00 38 1025.2
20260502091433 69 267 1.0 8.0 0.00 0.00 0.00 39 1025.6
20260502090432 69 268 1.0 4.0 0.00 0.00 0.00 38 1025.7
20260502071430 60 17 1.0 4.0 0.00 0.00 0.00 51 1026.3
20260502070930 60 11 2.0 4.0 0.00 0.00 0.00 51 1026.3
20260502070431 60 28 2.0 5.0 0.00 0.00 0.00 51 1026.4
20260502065930 59 53 2.0 5.0 0.00 0.00 0.00 52 1026.3
20260502065431 59 30 2.0 5.0 0.00 0.00 0.00 52 1026.4
20260502064930 59 355 2.0 5.0 0.00 0.00 0.00 53 1026.4
20260502064431 58 44 2.0 5.0 0.00 0.00 0.00 54 1026.3
20260502063430 57 342 3.0 7.0 0.00 0.00 0.00 56 1026.4
20260502062931 57 355 3.0 7.0 0.00 0.00 0.00 56 1026.4
20260502061930 56 344 1.0 4.0 0.00 0.00 0.00 58 1026.5
20260502061430 56 333 2.0 4.0 0.00 0.00 0.00 59 1026.4
20260502060930 55 335 1.0 4.0 0.00 0.00 0.00 59 1026.5
20260502060430 55 5 0.0 2.0 0.00 0.00 0.00 60 1026.5
20260502054928 54 317 0.0 2.0 0.00 0.00 0.00 60 1026.4
20260502053929 53 291 1.0 3.0 0.00 0.00 0.00 62 1026.4
20260502051418 51 328 0.0 0.0 0.00 0.00 0.00 67 1026.5
20260502050916 51 328 0.0 0.0 0.00 0.00 0.00 69 1026.5
20260502045412 49 355 0.0 0.0 0.00 0.00 0.00 72 1026.4
20260502044912 48 355 0.0 0.0 0.00 0.00 0.00 72 1026.4
20260502043910 48 355 0.0 0.0 0.00 0.00 0.00 72 1026.4
20260502043408 48 355 0.0 0.0 0.00 0.00 0.00 72 1026.4
20260502042906 48 355 0.0 0.0 0.00 0.00 0.00 72 1026.3
20260502041904 48 355 0.0 0.0 0.00 0.00 0.00 72 1026.4
20260502041402 48 355 0.0 0.0 0.00 0.00 0.00 72 1026.3
20260502040856 48 355 0.0 0.0 0.00 0.00 0.00 72 1026.3
20260502040357 48 355 0.0 0.0 0.00 0.00 0.00 72 1026.4
20260502035858 48 355 0.0 0.0 0.00 0.00 0.00 72 1026.3
20260502035356 48 355 0.0 0.0 0.00 0.00 0.00 72 1026.3
20260502034856 48 355 0.0 0.0 0.00 0.00 0.00 72 1026.2
20260502034354 48 355 0.0 0.0 0.00 0.00 0.00 72 1026.2
20260502032854 48 355 0.0 0.0 0.00 0.00 0.00 72 1026.3
20260502032354 48 355 0.0 0.0 0.00 0.00 0.00 71 1026.3
20260502031850 48 355 0.0 0.0 0.00 0.00 0.00 71 1026.3
20260502031350 48 355 0.0 0.0 0.00 0.00 0.00 70 1026.3
20260502030850 48 355 0.0 0.0 0.00 0.00 0.00 70 1026.3
20260502030350 48 355 0.0 0.0 0.00 0.00 0.00 70 1026.4
20260502025850 49 355 0.0 0.0 0.00 0.00 0.00 69 1026.4
20260502025350 49 355 0.0 0.0 0.00 0.00 0.00 69 1026.5
20260502024850 49 355 0.0 0.0 0.00 0.00 0.00 68 1026.4
20260502024350 49 355 0.0 0.0 0.00 0.00 0.00 67 1026.5
20260502023850 49 355 0.0 0.0 0.00 0.00 0.00 66 1026.5
20260502022851 49 355 0.0 0.0 0.00 0.00 0.00 66 1026.4
20260502022351 49 355 0.0 0.0 0.00 0.00 0.00 66 1026.5
20260502021848 49 355 0.0 0.0 0.00 0.00 0.00 66 1026.5
20260502021346 49 355 0.0 0.0 0.00 0.00 0.00 66 1026.5
20260502020846 49 355 0.0 0.0 0.00 0.00 0.00 65 1026.5
20260502020341 50 355 0.0 0.0 0.00 0.00 0.00 65 1026.5
20260502015840 50 355 0.0 0.0 0.00 0.00 0.00 66 1026.4
20260502015340 50 355 0.0 0.0 0.00 0.00 0.00 65 1026.4
20260502014839 50 355 0.0 0.0 0.00 0.00 0.00 65 1026.4
20260502014337 50 355 0.0 0.0 0.00 0.00 0.00 65 1026.4
20260502013836 50 355 0.0 0.0 0.00 0.00 0.00 65 1026.4
20260502013334 50 355 0.0 0.0 0.00 0.00 0.00 65 1026.3
20260502012832 50 355 0.0 0.0 0.00 0.00 0.00 65 1026.3
20260502012331 50 355 0.0 0.0 0.00 0.00 0.00 65 1026.3
20260502011833 50 355 0.0 0.0 0.00 0.00 0.00 65 1026.4
20260502011329 50 355 0.0 0.0 0.00 0.00 0.00 65 1026.4
20260502010830 50 355 0.0 0.0 0.00 0.00 0.00 64 1026.4
20260502010322 51 355 0.0 0.0 0.00 0.00 0.00 63 1026.4
20260502005815 51 355 0.0 0.0 0.00 0.00 0.00 64 1026.4
20260502005309 51 355 0.0 0.0 0.00 0.00 0.00 64 1026.4